Time,TemperatureF,DewpointF,PressureIn,WindDirection,WindDirectionDegrees,WindSpeedMPH,WindSpeedGustMPH,Humidity,HourlyPrecipIn,Conditions,Clouds,dailyrainin,SoftwareType,DateUTC
2013-08-10 00:00:00,74.0,66.0,29.78,WNW,287,1.0,1.0,76,0.00,,,0.00,Wunderground v.1.15,2013-08-10 04:00:00,
2013-08-10 00:05:00,74.0,66.0,29.78,WNW,287,0.0,8.0,76,0.00,,,0.00,Wunderground v.1.15,2013-08-10 04:05:00,
2013-08-10 00:10:00,73.9,65.5,29.78,WNW,287,0.0,8.0,75,0.00,,,0.00,Wunderground v.1.15,2013-08-10 04:10:00,
2013-08-10 00:15:00,74.0,65.2,29.78,NW,316,0.0,8.0,74,0.00,,,0.00,Wunderground v.1.15,2013-08-10 04:15:00,
2013-08-10 00:20:00,74.0,64.8,29.78,WNW,282,1.0,1.0,73,0.00,,,0.00,Wunderground v.1.15,2013-08-10 04:20:00,
2013-08-10 00:25:00,74.0,64.8,29.78,North,352,0.0,8.0,73,0.00,,,0.00,Wunderground v.1.15,2013-08-10 04:25:00,
2013-08-10 00:30:00,74.0,65.2,29.78,North,352,0.0,8.0,74,0.00,,,0.00,Wunderground v.1.15,2013-08-10 04:30:00,
2013-08-10 00:40:00,73.5,65.1,29.78,North,352,0.0,8.0,75,0.00,,,0.00,Wunderground v.1.15,2013-08-10 04:40:00,
2013-08-10 00:50:00,73.3,64.9,29.79,SW,234,0.0,8.0,75,0.00,,,0.00,Wunderground v.1.15,2013-08-10 04:50:00,
2013-08-10 00:55:00,73.2,65.2,29.79,West,277,0.0,8.0,76,0.00,,,0.00,Wunderground v.1.15,2013-08-10 04:55:00,
2013-08-10 01:00:00,73.0,63.8,29.79,WSW,258,1.0,1.0,73,0.00,,,0.00,Wunderground v.1.15,2013-08-10 05:00:00,
2013-08-10 01:05:00,73.0,64.2,29.79,WSW,258,0.0,8.0,74,0.00,,,0.00,Wunderground v.1.15,2013-08-10 05:05:00,
2013-08-10 01:15:00,72.8,62.4,29.80,West,271,2.0,8.0,70,0.00,,,0.00,Wunderground v.1.15,2013-08-10 05:15:00,
2013-08-10 01:20:00,73.0,62.6,29.80,NW,306,3.0,3.0,70,0.00,,,0.00,Wunderground v.1.15,2013-08-10 05:20:00,
2013-08-10 01:25:00,72.8,62.8,29.80,NW,306,1.0,8.0,71,0.00,,,0.00,Wunderground v.1.15,2013-08-10 05:25:00,
2013-08-10 01:30:00,72.5,62.2,29.80,West,280,2.0,8.0,70,0.00,,,0.00,Wunderground v.1.15,2013-08-10 05:30:00,
2013-08-10 01:35:00,72.5,61.7,29.80,NW,316,2.0,8.0,69,0.00,,,0.00,Wunderground v.1.15,2013-08-10 05:35:00,
2013-08-10 01:45:00,71.6,61.3,29.81,SW,223,1.0,8.0,70,0.00,,,0.00,Wunderground v.1.15,2013-08-10 05:45:00,
2013-08-10 01:50:00,71.8,60.7,29.81,North,0,3.0,3.0,68,0.00,,,0.00,Wunderground v.1.15,2013-08-10 05:50:00,
2013-08-10 01:55:00,71.6,60.5,29.81,West,280,3.0,8.0,68,0.00,,,0.00,Wunderground v.1.15,2013-08-10 05:55:00,
2013-08-10 02:00:00,71.5,60.0,29.81,West,265,2.0,2.0,67,0.00,,,0.00,Wunderground v.1.15,2013-08-10 06:00:00,
2013-08-10 02:05:00,71.3,60.6,29.81,West,264,2.0,8.0,69,0.00,,,0.00,Wunderground v.1.15,2013-08-10 06:05:00,
2013-08-10 02:10:00,70.8,59.7,29.81,WNW,282,1.0,8.0,68,0.00,,,0.00,Wunderground v.1.15,2013-08-10 06:10:00,
2013-08-10 02:20:00,70.4,59.7,29.82,West,272,1.0,1.0,69,0.00,,,0.00,Wunderground v.1.15,2013-08-10 06:20:00,
2013-08-10 02:25:00,70.1,59.9,29.82,West,271,1.0,8.0,70,0.00,,,0.00,Wunderground v.1.15,2013-08-10 06:25:00,
2013-08-10 02:30:00,69.8,59.6,29.82,WNW,299,0.0,8.0,70,0.00,,,0.00,Wunderground v.1.15,2013-08-10 06:30:00,
2013-08-10 02:35:00,69.8,60.0,29.82,WNW,299,0.0,8.0,71,0.00,,,0.00,Wunderground v.1.15,2013-08-10 06:35:00,
2013-08-10 02:40:00,69.8,59.6,29.82,WNW,285,1.0,8.0,70,0.00,,,0.00,Wunderground v.1.15,2013-08-10 06:40:00,
2013-08-10 02:50:00,68.6,59.2,29.82,East,90,1.0,1.0,72,0.00,,,0.00,Wunderground v.1.15,2013-08-10 06:50:00,
2013-08-10 02:55:00,68.3,60.4,29.82,East,95,1.0,8.0,76,0.00,,,0.00,Wunderground v.1.15,2013-08-10 06:55:00,
2013-08-10 03:05:00,67.9,59.3,29.83,NNE,32,1.0,8.0,74,0.00,,,0.00,Wunderground v.1.15,2013-08-10 07:05:00,
2013-08-10 03:10:00,68.3,59.3,29.83,WNW,289,1.0,8.0,73,0.00,,,0.00,Wunderground v.1.15,2013-08-10 07:10:00,
2013-08-10 03:15:00,68.1,59.9,29.83,WNW,289,1.0,8.0,75,0.00,,,0.00,Wunderground v.1.15,2013-08-10 07:15:00,
2013-08-10 03:25:00,67.1,60.7,29.83,NE,44,0.0,8.0,80,0.00,,,0.00,Wunderground v.1.15,2013-08-10 07:25:00,
2013-08-10 03:30:00,66.6,60.6,29.84,NE,44,0.0,8.0,81,0.00,,,0.00,Wunderground v.1.15,2013-08-10 07:30:00,
2013-08-10 03:35:00,66.4,60.4,29.84,NE,44,0.0,8.0,81,0.00,,,0.00,Wunderground v.1.15,2013-08-10 07:35:00,
2013-08-10 03:40:00,66.1,60.4,29.84,NE,45,0.0,8.0,82,0.00,,,0.00,Wunderground v.1.15,2013-08-10 07:40:00,
2013-08-10 03:45:00,65.8,60.5,29.84,NE,44,0.0,8.0,83,0.00,,,0.00,Wunderground v.1.15,2013-08-10 07:45:00,
2013-08-10 03:50:00,65.6,60.3,29.84,NE,45,0.0,8.0,83,0.00,,,0.00,Wunderground v.1.15,2013-08-10 07:50:00,
2013-08-10 04:00:00,65.3,60.3,29.84,ENE,68,0.0,8.0,84,0.00,,,0.00,Wunderground v.1.15,2013-08-10 08:00:00,
2013-08-10 04:05:00,65.3,60.3,29.84,ENE,66,0.0,8.0,84,0.00,,,0.00,Wunderground v.1.15,2013-08-10 08:05:00,
2013-08-10 04:10:00,65.3,60.3,29.84,SSE,161,0.0,8.0,84,0.00,,,0.00,Wunderground v.1.15,2013-08-10 08:10:00,
2013-08-10 04:15:00,65.2,60.2,29.84,WNW,298,1.0,8.0,84,0.00,,,0.00,Wunderground v.1.15,2013-08-10 08:15:00,
2013-08-10 04:20:00,65.2,60.2,29.84,NNW,328,1.0,1.0,84,0.00,,,0.00,Wunderground v.1.15,2013-08-10 08:20:00,
2013-08-10 04:30:00,65.0,60.0,29.85,NE,54,0.0,8.0,84,0.00,,,0.00,Wunderground v.1.15,2013-08-10 08:30:00,
2013-08-10 04:35:00,65.0,59.7,29.85,NE,54,0.0,8.0,83,0.00,,,0.00,Wunderground v.1.15,2013-08-10 08:35:00,
2013-08-10 04:40:00,64.8,59.9,29.85,NE,54,0.0,8.0,84,0.00,,,0.00,Wunderground v.1.15,2013-08-10 08:40:00,
2013-08-10 04:45:00,64.7,60.1,29.86,ENE,61,0.0,8.0,85,0.00,,,0.00,Wunderground v.1.15,2013-08-10 08:45:00,
2013-08-10 04:50:00,64.5,59.9,29.86,ENE,61,0.0,8.0,85,0.00,,,0.00,Wunderground v.1.15,2013-08-10 08:50:00,
2013-08-10 04:55:00,64.3,60.0,29.86,ENE,78,0.0,8.0,86,0.00,,,0.00,Wunderground v.1.15,2013-08-10 08:55:00,
2013-08-10 05:05:00,64.2,60.2,29.86,SE,127,1.0,8.0,87,0.00,,,0.00,Wunderground v.1.15,2013-08-10 09:05:00,
2013-08-10 05:10:00,64.0,60.1,29.86,SE,127,0.0,8.0,87,0.00,,,0.00,Wunderground v.1.15,2013-08-10 09:10:00,
2013-08-10 05:20:00,63.5,59.6,29.86,SE,127,0.0,8.0,87,0.00,,,0.00,Wunderground v.1.15,2013-08-10 09:20:00,
2013-08-10 05:25:00,63.2,59.3,29.86,SE,127,0.0,8.0,87,0.00,,,0.00,Wunderground v.1.15,2013-08-10 09:25:00,
2013-08-10 05:30:00,62.7,59.1,29.87,SE,127,0.0,8.0,88,0.00,,,0.00,Wunderground v.1.15,2013-08-10 09:30:00,
2013-08-10 05:40:00,62.3,58.7,29.87,ESE,119,0.0,8.0,88,0.00,,,0.00,Wunderground v.1.15,2013-08-10 09:40:00,
2013-08-10 05:45:00,62.0,58.7,29.87,ESE,119,0.0,8.0,89,0.00,,,0.00,Wunderground v.1.15,2013-08-10 09:45:00,
2013-08-10 05:50:00,61.6,58.6,29.87,ESE,119,0.0,8.0,90,0.00,,,0.00,Wunderground v.1.15,2013-08-10 09:50:00,
2013-08-10 05:55:00,61.6,58.6,29.87,ESE,119,0.0,8.0,90,0.00,,,0.00,Wunderground v.1.15,2013-08-10 09:55:00,
2013-08-10 06:00:00,61.5,58.5,29.88,ESE,119,0.0,8.0,90,0.00,,,0.00,Wunderground v.1.15,2013-08-10 10:00:00,
2013-08-10 06:10:00,61.2,58.6,29.88,ESE,119,0.0,8.0,91,0.00,,,0.00,Wunderground v.1.15,2013-08-10 10:10:00,
2013-08-10 06:15:00,61.2,58.6,29.88,ESE,119,0.0,8.0,91,0.00,,,0.00,Wunderground v.1.15,2013-08-10 10:15:00,
2013-08-10 06:25:00,61.0,58.7,29.88,ESE,119,0.0,8.0,92,0.00,,,0.00,Wunderground v.1.15,2013-08-10 10:25:00,
2013-08-10 06:30:00,61.0,59.0,29.88,ESE,119,0.0,8.0,93,0.00,,,0.00,Wunderground v.1.15,2013-08-10 10:30:00,
2013-08-10 06:35:00,60.9,58.6,29.88,ESE,121,0.0,8.0,92,0.00,,,0.00,Wunderground v.1.15,2013-08-10 10:35:00,
2013-08-10 06:40:00,60.9,58.6,29.88,ESE,121,0.0,8.0,92,0.00,,,0.00,Wunderground v.1.15,2013-08-10 10:40:00,
2013-08-10 06:50:00,61.0,58.7,29.89,ESE,121,0.0,8.0,92,0.00,,,0.00,Wunderground v.1.15,2013-08-10 10:50:00,
2013-08-10 06:55:00,61.0,58.7,29.89,ESE,121,0.0,8.0,92,0.00,,,0.00,Wunderground v.1.15,2013-08-10 10:55:00,
2013-08-10 07:00:00,61.0,58.7,29.89,ESE,121,0.0,8.0,92,0.00,,,0.00,Wunderground v.1.15,2013-08-10 11:00:00,
2013-08-10 07:05:00,61.2,58.9,29.89,ESE,121,0.0,8.0,92,0.00,,,0.00,Wunderground v.1.15,2013-08-10 11:05:00,
2013-08-10 07:10:00,61.5,59.2,29.89,ESE,121,0.0,8.0,92,0.00,,,0.00,Wunderground v.1.15,2013-08-10 11:10:00,
2013-08-10 07:20:00,62.3,59.9,29.89,ESE,121,0.0,8.0,92,0.00,,,0.00,Wunderground v.1.15,2013-08-10 11:20:00,
2013-08-10 07:25:00,62.7,60.0,29.89,ESE,121,0.0,8.0,91,0.00,,,0.00,Wunderground v.1.15,2013-08-10 11:25:00,
2013-08-10 07:30:00,63.5,60.5,29.89,ESE,104,0.0,8.0,90,0.00,,,0.00,Wunderground v.1.15,2013-08-10 11:30:00,
2013-08-10 07:35:00,63.7,60.1,29.89,NNE,20,0.0,8.0,88,0.00,,,0.00,Wunderground v.1.15,2013-08-10 11:35:00,
2013-08-10 07:40:00,63.7,59.8,29.89,NE,54,0.0,8.0,87,0.00,,,0.00,Wunderground v.1.15,2013-08-10 11:40:00,
2013-08-10 07:45:00,64.0,60.1,29.89,WNW,301,1.0,8.0,87,0.00,,,0.00,Wunderground v.1.15,2013-08-10 11:45:00,
2013-08-10 07:50:00,64.3,59.7,29.89,SW,223,0.0,8.0,85,0.00,,,0.00,Wunderground v.1.15,2013-08-10 11:50:00,
2013-08-10 07:55:00,64.7,59.8,29.89,SW,223,0.0,8.0,84,0.00,,,0.00,Wunderground v.1.15,2013-08-10 11:55:00,
2013-08-10 08:00:00,65.2,59.9,29.89,SSE,154,1.0,1.0,83,0.00,,,0.00,Wunderground v.1.15,2013-08-10 12:00:00,
2013-08-10 08:05:00,65.5,59.9,29.89,SW,217,1.0,8.0,82,0.00,,,0.00,Wunderground v.1.15,2013-08-10 12:05:00,
2013-08-10 08:15:00,66.1,59.7,29.89,NNE,20,1.0,8.0,80,0.00,,,0.00,Wunderground v.1.15,2013-08-10 12:15:00,
2013-08-10 08:20:00,66.3,59.2,29.89,ESE,117,1.0,1.0,78,0.00,,,0.00,Wunderground v.1.15,2013-08-10 12:20:00,
2013-08-10 08:30:00,66.6,59.2,29.89,West,280,0.0,8.0,77,0.00,,,0.00,Wunderground v.1.15,2013-08-10 12:30:00,
2013-08-10 08:35:00,67.1,59.6,29.89,West,278,0.0,8.0,77,0.00,,,0.00,Wunderground v.1.15,2013-08-10 12:35:00,
2013-08-10 08:40:00,67.8,59.6,29.89,SSE,154,1.0,1.0,75,0.00,,,0.00,Wunderground v.1.15,2013-08-10 12:40:00,
2013-08-10 08:45:00,68.4,59.0,29.89,West,265,2.0,2.0,72,0.00,,,0.00,Wunderground v.1.15,2013-08-10 12:45:00,
2013-08-10 08:50:00,68.8,59.8,29.89,SW,220,2.0,2.0,73,0.00,,,0.00,Wunderground v.1.15,2013-08-10 12:50:00,
2013-08-10 08:55:00,69.4,59.6,29.89,WSW,253,2.0,8.0,71,0.00,,,0.00,Wunderground v.1.15,2013-08-10 12:55:00,
2013-08-10 09:05:00,69.9,60.1,29.88,NW,309,1.0,8.0,71,0.00,,,0.00,Wunderground v.1.15,2013-08-10 13:05:00,
2013-08-10 09:10:00,70.3,60.1,29.88,NNW,344,2.0,2.0,70,0.00,,,0.00,Wunderground v.1.15,2013-08-10 13:10:00,
2013-08-10 09:15:00,70.4,58.5,29.89,WNW,292,2.0,4.0,66,0.00,,,0.00,Wunderground v.1.15,2013-08-10 13:15:00,
2013-08-10 09:25:00,70.9,58.1,29.89,SSW,193,2.0,8.0,64,0.00,,,0.00,Wunderground v.1.15,2013-08-10 13:25:00,
2013-08-10 09:30:00,71.3,58.1,29.89,North,357,1.0,1.0,63,0.00,,,0.00,Wunderground v.1.15,2013-08-10 13:30:00,
2013-08-10 09:40:00,71.6,59.2,29.89,South,172,2.0,8.0,65,0.00,,,0.00,Wunderground v.1.15,2013-08-10 13:40:00,
2013-08-10 09:45:00,71.8,58.1,29.88,ESE,110,1.0,8.0,62,0.00,,,0.00,Wunderground v.1.15,2013-08-10 13:45:00,
2013-08-10 09:50:00,72.7,59.4,29.88,SW,227,1.0,1.0,63,0.00,,,0.00,Wunderground v.1.15,2013-08-10 13:50:00,
2013-08-10 09:55:00,72.7,57.1,29.88,NW,305,1.0,2.0,58,0.00,,,0.00,Wunderground v.1.15,2013-08-10 13:55:00,
2013-08-10 10:00:00,72.1,57.0,29.88,WNW,299,3.0,8.0,59,0.00,,,0.00,Wunderground v.1.15,2013-08-10 14:00:00,
2013-08-10 10:10:00,72.0,57.8,29.88,West,264,2.0,2.0,61,0.00,,,0.00,Wunderground v.1.15,2013-08-10 14:10:00,
2013-08-10 10:15:00,72.7,58.9,29.89,West,264,1.0,8.0,62,0.00,,,0.00,Wunderground v.1.15,2013-08-10 14:15:00,
2013-08-10 10:20:00,72.8,57.2,29.89,ESE,104,2.0,8.0,58,0.00,,,0.00,Wunderground v.1.15,2013-08-10 14:20:00,
2013-08-10 10:25:00,73.0,56.9,29.89,NW,305,2.0,8.0,57,0.00,,,0.00,Wunderground v.1.15,2013-08-10 14:25:00,
2013-08-10 10:30:00,72.7,57.1,29.88,WNW,299,2.0,2.0,58,0.00,,,0.00,Wunderground v.1.15,2013-08-10 14:30:00,
2013-08-10 10:35:00,71.8,56.7,29.88,West,268,3.0,3.0,59,0.00,,,0.00,Wunderground v.1.15,2013-08-10 14:35:00,
2013-08-10 10:45:00,72.1,55.5,29.88,West,277,2.0,8.0,56,0.00,,,0.00,Wunderground v.1.15,2013-08-10 14:45:00,
2013-08-10 10:50:00,72.1,56.5,29.88,WNW,285,2.0,2.0,58,0.00,,,0.00,Wunderground v.1.15,2013-08-10 14:50:00,
2013-08-10 10:55:00,72.3,57.2,29.88,NNE,13,1.0,8.0,59,0.00,,,0.00,Wunderground v.1.15,2013-08-10 14:55:00,
2013-08-10 11:00:00,72.8,56.7,29.88,NNW,328,1.0,1.0,57,0.00,,,0.00,Wunderground v.1.15,2013-08-10 15:00:00,
2013-08-10 11:10:00,73.0,56.9,29.88,South,191,2.0,2.0,57,0.00,,,0.00,Wunderground v.1.15,2013-08-10 15:10:00,
2013-08-10 11:15:00,73.7,55.0,29.87,WNW,282,2.0,3.0,52,0.00,,,0.00,Wunderground v.1.15,2013-08-10 15:15:00,
2013-08-10 11:20:00,73.3,56.2,29.87,WNW,289,2.0,8.0,55,0.00,,,0.00,Wunderground v.1.15,2013-08-10 15:20:00,
2013-08-10 11:25:00,73.3,56.7,29.87,NW,308,2.0,8.0,56,0.00,,,0.00,Wunderground v.1.15,2013-08-10 15:25:00,
2013-08-10 11:30:00,73.5,57.3,29.88,NW,305,2.0,2.0,57,0.00,,,0.00,Wunderground v.1.15,2013-08-10 15:30:00,
2013-08-10 11:40:00,73.3,55.6,29.88,NW,315,4.0,4.0,54,0.00,,,0.00,Wunderground v.1.15,2013-08-10 15:40:00,
2013-08-10 11:45:00,72.8,54.1,29.87,West,277,3.0,8.0,52,0.00,,,0.00,Wunderground v.1.15,2013-08-10 15:45:00,
2013-08-10 11:55:00,73.2,56.1,29.87,WSW,244,1.0,8.0,55,0.00,,,0.00,Wunderground v.1.15,2013-08-10 15:55:00,
2013-08-10 12:00:00,73.2,54.5,29.88,West,270,2.0,8.0,52,0.00,,,0.00,Wunderground v.1.15,2013-08-10 16:00:00,
2013-08-10 12:05:00,73.5,56.3,29.88,WNW,302,2.0,8.0,55,0.00,,,0.00,Wunderground v.1.15,2013-08-10 16:05:00,
2013-08-10 12:10:00,73.7,56.5,29.88,WSW,256,1.0,1.0,55,0.00,,,0.00,Wunderground v.1.15,2013-08-10 16:10:00,
2013-08-10 12:15:00,74.2,56.0,29.88,NW,315,1.0,8.0,53,0.00,,,0.00,Wunderground v.1.15,2013-08-10 16:15:00,
2013-08-10 12:25:00,73.9,55.7,29.88,SW,229,2.0,8.0,53,0.00,,,0.00,Wunderground v.1.15,2013-08-10 16:25:00,
2013-08-10 12:35:00,73.9,54.6,29.87,NW,305,3.0,5.0,51,0.00,,,0.00,Wunderground v.1.15,2013-08-10 16:35:00,
2013-08-10 12:40:00,73.9,54.1,29.87,NW,326,3.0,3.0,50,0.00,,,0.00,Wunderground v.1.15,2013-08-10 16:40:00,
2013-08-10 12:45:00,74.4,55.1,29.88,North,357,1.0,8.0,51,0.00,,,0.00,Wunderground v.1.15,2013-08-10 16:45:00,
2013-08-10 12:50:00,74.0,51.9,29.88,SW,220,2.0,8.0,46,0.00,,,0.00,Wunderground v.1.15,2013-08-10 16:50:00,
2013-08-10 13:00:00,74.2,53.2,29.88,West,263,2.0,2.0,48,0.00,,,0.00,Wunderground v.1.15,2013-08-10 17:00:00,
2013-08-10 13:05:00,75.1,52.9,29.88,NW,308,2.0,5.0,46,0.00,,,0.00,Wunderground v.1.15,2013-08-10 17:05:00,
2013-08-10 13:15:00,75.8,51.7,29.88,WNW,288,3.0,8.0,43,0.00,,,0.00,Wunderground v.1.15,2013-08-10 17:15:00,
2013-08-10 13:20:00,75.8,51.1,29.88,WNW,298,2.0,2.0,42,0.00,,,0.00,Wunderground v.1.15,2013-08-10 17:20:00,
2013-08-10 13:25:00,74.9,50.3,29.88,North,11,3.0,4.0,42,0.00,,,0.00,Wunderground v.1.15,2013-08-10 17:25:00,
2013-08-10 13:30:00,74.9,48.9,29.89,West,277,4.0,4.0,40,0.00,,,0.00,Wunderground v.1.15,2013-08-10 17:30:00,
2013-08-10 13:35:00,75.6,50.9,29.89,South,185,3.0,8.0,42,0.00,,,0.00,Wunderground v.1.15,2013-08-10 17:35:00,
2013-08-10 13:45:00,76.1,47.9,29.88,WNW,289,3.0,8.0,37,0.00,,,0.00,Wunderground v.1.15,2013-08-10 17:45:00,
2013-08-10 13:50:00,75.8,44.6,29.88,WNW,288,4.0,4.0,33,0.00,,,0.00,Wunderground v.1.15,2013-08-10 17:50:00,
2013-08-10 13:55:00,76.0,45.6,29.88,WNW,291,5.0,7.0,34,0.00,,,0.00,Wunderground v.1.15,2013-08-10 17:55:00,
2013-08-10 14:00:00,76.0,43.2,29.89,WNW,295,3.0,3.0,31,0.00,,,0.00,Wunderground v.1.15,2013-08-10 18:00:00,
2013-08-10 14:10:00,76.7,45.4,29.89,WSW,247,4.0,8.0,33,0.00,,,0.00,Wunderground v.1.15,2013-08-10 18:10:00,
2013-08-10 14:15:00,76.8,45.5,29.89,West,261,5.0,8.0,33,0.00,,,0.00,Wunderground v.1.15,2013-08-10 18:15:00,
2013-08-10 14:20:00,77.0,45.7,29.89,West,270,3.0,3.0,33,0.00,,,0.00,Wunderground v.1.15,2013-08-10 18:20:00,
2013-08-10 14:25:00,77.4,45.2,29.89,NW,304,3.0,8.0,32,0.00,,,0.00,Wunderground v.1.15,2013-08-10 18:25:00,
2013-08-10 14:35:00,76.8,47.1,29.89,West,265,4.0,8.0,35,0.00,,,0.00,Wunderground v.1.15,2013-08-10 18:35:00,
2013-08-10 14:40:00,76.5,42.7,29.89,NW,306,4.0,12.0,30,0.00,,,0.00,Wunderground v.1.15,2013-08-10 18:40:00,
2013-08-10 14:45:00,76.7,43.8,29.89,NW,323,4.0,12.0,31,0.00,,,0.00,Wunderground v.1.15,2013-08-10 18:45:00,
2013-08-10 14:50:00,76.8,46.3,29.89,West,271,3.0,8.0,34,0.00,,,0.00,Wunderground v.1.15,2013-08-10 18:50:00,
2013-08-10 14:55:00,76.8,43.9,29.89,West,275,2.0,8.0,31,0.00,,,0.00,Wunderground v.1.15,2013-08-10 18:55:00,
2013-08-10 15:00:00,76.7,44.6,29.89,NW,309,2.0,8.0,32,0.00,,,0.00,Wunderground v.1.15,2013-08-10 19:00:00,
2013-08-10 15:05:00,76.7,47.0,29.89,WNW,302,3.0,8.0,35,0.00,,,0.00,Wunderground v.1.15,2013-08-10 19:05:00,
2013-08-10 15:10:00,77.4,43.5,29.89,NNW,329,3.0,3.0,30,0.00,,,0.00,Wunderground v.1.15,2013-08-10 19:10:00,
2013-08-10 15:15:00,77.6,42.8,29.89,WSW,256,2.0,8.0,29,0.00,,,0.00,Wunderground v.1.15,2013-08-10 19:15:00,
2013-08-10 15:20:00,77.7,45.5,29.89,WSW,241,2.0,8.0,32,0.00,,,0.00,Wunderground v.1.15,2013-08-10 19:20:00,
2013-08-10 15:30:00,77.4,43.5,29.89,WNW,301,5.0,5.0,30,0.00,,,0.00,Wunderground v.1.15,2013-08-10 19:30:00,
2013-08-10 15:35:00,77.2,41.6,29.89,WNW,296,3.0,6.0,28,0.00,,,0.00,Wunderground v.1.15,2013-08-10 19:35:00,
2013-08-10 15:40:00,77.6,42.8,29.89,NNW,330,3.0,3.0,29,0.00,,,0.00,Wunderground v.1.15,2013-08-10 19:40:00,
2013-08-10 15:50:00,77.7,42.0,29.89,West,280,3.0,8.0,28,0.00,,,0.00,Wunderground v.1.15,2013-08-10 19:50:00,
2013-08-10 15:55:00,77.7,42.0,29.89,SW,226,3.0,9.0,28,0.00,,,0.00,Wunderground v.1.15,2013-08-10 19:55:00,
2013-08-10 16:00:00,77.7,41.0,29.89,West,281,3.0,8.0,27,0.00,,,0.00,Wunderground v.1.15,2013-08-10 20:00:00,
2013-08-10 16:10:00,77.2,38.6,29.89,SW,229,4.0,4.0,25,0.00,,,0.00,Wunderground v.1.15,2013-08-10 20:10:00,
2013-08-10 16:15:00,77.6,41.0,29.89,SW,233,2.0,8.0,27,0.00,,,0.00,Wunderground v.1.15,2013-08-10 20:15:00,
2013-08-10 16:20:00,77.7,42.0,29.89,West,280,1.0,8.0,28,0.00,,,0.00,Wunderground v.1.15,2013-08-10 20:20:00,
2013-08-10 16:25:00,78.1,42.3,29.89,NNW,339,2.0,8.0,28,0.00,,,0.00,Wunderground v.1.15,2013-08-10 20:25:00,
2013-08-10 16:32:00,77.9,41.2,29.89,NW,323,3.0,8.0,27,0.00,,,0.00,Wunderground v.1.15,2013-08-10 20:32:00,
2013-08-10 16:41:00,77.0,39.5,29.89,North,0,5.0,5.0,26,0.00,,,0.00,Wunderground v.1.15,2013-08-10 20:41:00,
2013-08-10 16:51:00,77.2,41.6,29.90,NW,311,3.0,3.0,28,0.00,,,0.00,Wunderground v.1.15,2013-08-10 20:51:00,